Location: Burzi?i
(45.0869°N, 16.0577°E)
Time: 04:29:50
(UTC+00:00)

Cosmos 2219 - Pass Details

Date: 29 October 2020
Orbit: 832 x 862 km, 71.1° (Epoch: 01 December)

Event Time Altitude Azimuth Distance (km) Brightness Sun altitude
Rises 16:20:59 0° 336° (NNW) 3,446 6.5 -6.5°
Reaches altitude 10° 16:23:29 10° 340° (NNW) 2,507 5.8 -6.9°
Maximum altitude 16:29:13 64° 61° (ENE) 955 3.3 -7.9°
Drops below altitude 10° 16:34:55 10° 143° (SE) 2,492 5.4 -8.9°
Sets 16:37:23 0° 146° (SSE) 3,423 6.1 -9.3°
